Time,TemperatureF,DewpointF,PressureIn,WindDirection,WindDirectionDegrees,WindSpeedMPH,WindSpeedGustMPH,Humidity,HourlyPrecipIn,Conditions,Clouds,dailyrainin,SolarRadiationWatts/m^2,SoftwareType,DateUTC
2013-08-17 00:03:00,61.0,50.0,-100.00,SSE,161,4.0,6.0,67,0.00,,,0.00,0.000000,,2013-08-17 04:03:00,
2013-08-17 00:44:00,60.0,50.0,-100.00,SSE,162,4.0,5.0,70,0.00,,,0.00,0.000000,,2013-08-17 04:44:00,
2013-08-17 00:53:00,60.0,50.0,-100.00,SSE,162,4.0,5.0,70,0.00,,,0.00,0.000000,,2013-08-17 04:53:00,
2013-08-17 01:03:00,60.0,50.0,-100.00,SSE,162,4.0,5.0,70,0.00,,,0.00,0.000000,,2013-08-17 05:03:00,
2013-08-17 01:42:00,60.0,49.0,-100.00,South,179,4.0,7.0,66,0.00,,,0.00,0.000000,,2013-08-17 05:42:00,
2013-08-17 01:52:00,60.0,49.0,-100.00,South,179,4.0,7.0,66,0.00,,,0.00,0.000000,,2013-08-17 05:52:00,
2013-08-17 02:01:00,60.0,49.0,-100.00,South,179,4.0,7.0,66,0.00,,,0.00,0.000000,,2013-08-17 06:01:00,
2013-08-17 02:42:00,61.0,52.0,-100.00,SSW,203,5.0,8.0,71,0.00,,,0.00,0.000000,,2013-08-17 06:42:00,
2013-08-17 02:52:00,61.0,52.0,-100.00,SSW,203,5.0,8.0,71,0.00,,,0.00,0.000000,,2013-08-17 06:52:00,
2013-08-17 03:01:00,61.0,52.0,-100.00,SSW,203,5.0,8.0,71,0.00,,,0.00,0.000000,,2013-08-17 07:01:00,
2013-08-17 03:42:00,60.0,51.0,-100.00,SSW,194,3.0,6.0,72,-99.99,,,0.00,0.000000,,2013-08-17 07:42:00,
2013-08-17 03:52:00,60.0,51.0,-100.00,SSW,194,3.0,6.0,72,-99.99,,,0.00,0.000000,,2013-08-17 07:52:00,
2013-08-17 04:02:00,60.0,51.0,-100.00,SSW,194,3.0,6.0,72,-99.99,,,0.00,0.000000,,2013-08-17 08:02:00,
2013-08-17 04:42:00,55.0,52.0,-100.00,ENE,65,2.0,5.0,90,0.00,,,0.00,0.000000,,2013-08-17 08:42:00,
2013-08-17 04:52:00,55.0,52.0,-100.00,ENE,65,2.0,5.0,90,0.00,,,0.00,0.000000,,2013-08-17 08:52:00,
2013-08-17 05:02:00,55.0,52.0,-100.00,ENE,65,2.0,5.0,90,0.00,,,0.00,0.000000,,2013-08-17 09:02:00,
2013-08-17 05:43:00,55.0,55.0,-100.00,ENE,61,3.0,4.0,100,0.00,,,0.00,0.000000,,2013-08-17 09:43:00,
2013-08-17 05:53:00,55.0,55.0,-100.00,ENE,61,3.0,4.0,100,0.00,,,0.00,0.000000,,2013-08-17 09:53:00,
2013-08-17 06:03:00,55.0,55.0,-100.00,ENE,61,3.0,4.0,100,0.00,,,0.00,0.000000,,2013-08-17 10:03:00,
2013-08-17 06:42:00,54.0,54.0,-100.00,ENE,65,2.0,4.0,99,0.00,,,0.00,0.000000,,2013-08-17 10:42:00,
2013-08-17 06:53:00,54.0,54.0,-100.00,ENE,65,2.0,4.0,99,0.00,,,0.00,0.000000,,2013-08-17 10:53:00,
2013-08-17 07:02:00,54.0,54.0,-100.00,ENE,65,2.0,4.0,99,0.00,,,0.00,0.000000,,2013-08-17 11:02:00,
2013-08-17 10:42:00,69.0,55.0,-100.00,North,11,5.0,9.0,60,0.00,,,0.00,540.000000,,2013-08-17 14:42:00,
2013-08-17 10:52:00,69.0,55.0,-100.00,North,11,5.0,9.0,60,0.00,,,0.00,540.000000,,2013-08-17 14:52:00,
2013-08-17 11:01:00,69.0,55.0,-100.00,North,11,5.0,9.0,60,0.00,,,0.00,540.000000,,2013-08-17 15:01:00,
2013-08-17 11:44:00,71.0,56.0,-100.00,North,4,4.0,9.0,59,0.00,,,0.00,636.000000,,2013-08-17 15:44:00,
2013-08-17 11:54:00,71.0,56.0,-100.00,North,4,4.0,9.0,59,0.00,,,0.00,636.000000,,2013-08-17 15:54:00,
2013-08-17 12:03:00,71.0,56.0,-100.00,North,4,4.0,9.0,59,0.00,,,0.00,636.000000,,2013-08-17 16:03:00,
2013-08-17 12:42:00,70.0,55.0,-100.00,NNE,13,4.0,7.0,60,0.00,,,0.00,556.000000,,2013-08-17 16:42:00,
2013-08-17 12:53:00,70.0,55.0,-100.00,NNE,13,4.0,7.0,60,0.00,,,0.00,556.000000,,2013-08-17 16:53:00,
2013-08-17 13:02:00,70.0,55.0,-100.00,NNE,13,4.0,7.0,60,0.00,,,0.00,556.000000,,2013-08-17 17:02:00,
2013-08-17 13:42:00,73.0,58.0,-100.00,NE,52,3.0,11.0,59,0.00,,,0.00,601.000000,,2013-08-17 17:42:00,
2013-08-17 13:52:00,73.0,58.0,-100.00,NE,52,3.0,11.0,59,0.00,,,0.00,601.000000,,2013-08-17 17:52:00,
2013-08-17 14:02:00,73.0,58.0,-100.00,NE,52,3.0,11.0,59,0.00,,,0.00,601.000000,,2013-08-17 18:02:00,
2013-08-17 14:42:00,74.0,52.0,-100.00,East,91,3.0,9.0,46,0.00,,,0.00,694.000000,,2013-08-17 18:42:00,
2013-08-17 14:52:00,74.0,52.0,-100.00,East,91,3.0,9.0,46,0.00,,,0.00,694.000000,,2013-08-17 18:52:00,
2013-08-17 15:02:00,74.0,52.0,-100.00,East,91,3.0,9.0,46,0.00,,,0.00,694.000000,,2013-08-17 19:02:00,
2013-08-17 15:42:00,76.0,53.0,-100.00,SSW,192,5.0,11.0,45,0.00,,,0.00,746.000000,,2013-08-17 19:42:00,
2013-08-17 15:52:00,76.0,53.0,-100.00,SSW,192,5.0,11.0,45,0.00,,,0.00,746.000000,,2013-08-17 19:52:00,
2013-08-17 16:02:00,76.0,53.0,-100.00,SSW,192,5.0,11.0,45,0.00,,,0.00,746.000000,,2013-08-17 20:02:00,
2013-08-17 16:42:00,74.0,53.0,-100.00,South,172,5.0,14.0,48,0.00,,,0.00,520.000000,,2013-08-17 20:42:00,
2013-08-17 16:52:00,74.0,53.0,-100.00,South,172,5.0,14.0,48,0.00,,,0.00,520.000000,,2013-08-17 20:52:00,
2013-08-17 17:01:00,74.0,53.0,-100.00,South,172,5.0,14.0,48,0.00,,,0.00,520.000000,,2013-08-17 21:01:00,
2013-08-17 17:42:00,72.0,50.0,-100.00,SSE,152,4.0,10.0,46,0.00,,,0.00,376.000000,,2013-08-17 21:42:00,
2013-08-17 17:54:00,72.0,50.0,-100.00,SSE,152,4.0,10.0,46,0.00,,,0.00,376.000000,,2013-08-17 21:54:00,
2013-08-17 18:03:00,72.0,50.0,-100.00,SSE,152,4.0,10.0,46,0.00,,,0.00,376.000000,,2013-08-17 22:03:00,
2013-08-17 18:42:00,71.0,55.0,-100.00,SSE,148,3.0,7.0,57,0.00,,,0.00,197.000000,,2013-08-17 22:42:00,
2013-08-17 18:52:00,71.0,55.0,-100.00,SSE,148,3.0,7.0,57,0.00,,,0.00,197.000000,,2013-08-17 22:52:00,
2013-08-17 19:02:00,71.0,55.0,-100.00,SSE,148,3.0,7.0,57,0.00,,,0.00,197.000000,,2013-08-17 23:02:00,
2013-08-17 19:42:00,66.0,56.0,-100.00,ESE,121,3.0,4.0,70,0.00,,,0.00,75.000000,,2013-08-17 23:42:00,
2013-08-17 19:52:00,66.0,56.0,-100.00,ESE,121,3.0,4.0,70,0.00,,,0.00,75.000000,,2013-08-17 23:52:00,
2013-08-17 20:01:00,66.0,56.0,-100.00,ESE,121,3.0,4.0,70,0.00,,,0.00,75.000000,,2013-08-18 00:01:00,
2013-08-17 20:42:00,63.0,53.0,-100.00,ESE,114,3.0,5.0,69,0.00,,,0.00,21.000000,,2013-08-18 00:42:00,
2013-08-17 20:52:00,63.0,53.0,-100.00,ESE,114,3.0,5.0,69,0.00,,,0.00,21.000000,,2013-08-18 00:52:00,
2013-08-17 21:01:00,63.0,53.0,-100.00,ESE,114,3.0,5.0,69,0.00,,,0.00,21.000000,,2013-08-18 01:01:00,
2013-08-17 21:42:00,64.0,54.0,-100.00,ESE,120,3.0,6.0,69,0.00,,,0.00,0.000000,,2013-08-18 01:42:00,
2013-08-17 21:52:00,64.0,54.0,-100.00,ESE,120,3.0,6.0,69,0.00,,,0.00,0.000000,,2013-08-18 01:52:00,
2013-08-17 22:02:00,64.0,54.0,-100.00,ESE,120,3.0,6.0,69,0.00,,,0.00,0.000000,,2013-08-18 02:02:00,
2013-08-17 22:42:00,63.0,54.0,-100.00,ESE,116,3.0,5.0,72,0.00,,,0.00,0.000000,,2013-08-18 02:42:00,
2013-08-17 22:52:00,63.0,54.0,-100.00,ESE,116,3.0,5.0,72,0.00,,,0.00,0.000000,,2013-08-18 02:52:00,
2013-08-17 23:02:00,63.0,54.0,-100.00,ESE,116,3.0,5.0,72,0.00,,,0.00,0.000000,,2013-08-18 03:02:00,
2013-08-17 23:43:00,64.0,54.0,-100.00,SE,139,3.0,6.0,71,0.00,,,0.00,0.000000,,2013-08-18 03:43:00,
2013-08-17 23:53:00,64.0,54.0,-100.00,SE,139,3.0,6.0,71,0.00,,,0.00,0.000000,,2013-08-18 03:53:00,